<?xml version="1.0" encoding="UTF-8" standalone="no" ?>
<gpx xmlns="http://www.topografix.com/GPX/1/1" xmlns:xsi="http://www.w3.org/2001/XMLSchema-instance" xsi:schemaLocation="http://www.topografix.com/GPX/1/1 http://www.topografix.com/GPX/1/1/gpx.xsd" version="1.1" creator="VisuGPX - https://www.visugpx.com">
  <metadata>
    <name>Ecrins 2021</name>
  </metadata>
  <wpt lat="44.8396" lon="6.47901">
    <ele>1191.4</ele>
    <name><![CDATA[Vallouise]]></name>
  </wpt>
  <wpt lat="44.83903" lon="6.47524">
    <ele>1196.1</ele>
    <name><![CDATA[Pont des Fontaines]]></name>
  </wpt>
  <wpt lat="44.83931" lon="6.45488">
    <ele>1245.7</ele>
    <name><![CDATA[Pont des Places]]></name>
  </wpt>
  <wpt lat="44.83632" lon="6.44255">
    <ele>1309.8</ele>
    <name><![CDATA[Eboulement]]></name>
  </wpt>
  <wpt lat="44.83869" lon="6.44564">
    <ele>1289.8</ele>
    <name><![CDATA[Les Grésourières]]></name>
  </wpt>
  <wpt lat="44.83597" lon="6.43037">
    <ele>1466.9</ele>
    <name><![CDATA[Béassac]]></name>
  </wpt>
  <wpt lat="44.83117" lon="6.40174">
    <ele>1622.1</ele>
    <name><![CDATA[Entre les Aygues]]></name>
  </wpt>
  <wpt lat="44.83049" lon="6.40124">
    <ele>1609.1</ele>
    <name><![CDATA[Passerelle sur le torrent des Bans]]></name>
  </wpt>
  <wpt lat="44.81358" lon="6.38864">
    <ele>1836.5</ele>
    <name><![CDATA[Panneau d'entrée dans le parc des Ecrins]]></name>
  </wpt>
  <wpt lat="44.80661" lon="6.37616">
    <ele>1939.8</ele>
    <name><![CDATA[Passerelle sur le ruisseau du Ravin du Blanc]]></name>
  </wpt>
  <wpt lat="44.8009" lon="6.36589">
    <ele>2016.2</ele>
    <name><![CDATA[Passerelle sur le ruisseau de Chanteloube]]></name>
  </wpt>
  <wpt lat="44.79287" lon="6.36504">
    <ele>2131</ele>
    <name><![CDATA[1er ressaut]]></name>
  </wpt>
  <wpt lat="44.79042" lon="6.36483">
    <ele>2165</ele>
    <name><![CDATA[2ème ressaut]]></name>
  </wpt>
  <wpt lat="44.78733" lon="6.36223">
    <ele>2279.1</ele>
    <name><![CDATA[Champ Rond]]></name>
  </wpt>
  <wpt lat="44.78227" lon="6.35819">
    <ele>2498.2</ele>
    <name><![CDATA[Torrent de la Saume]]></name>
  </wpt>
  <wpt lat="44.76133" lon="6.34075">
    <ele>2074.9</ele>
    <name><![CDATA[Cabanes de Rougnoux]]></name>
  </wpt>
  <wpt lat="44.7633" lon="6.33688">
    <ele>1969.9</ele>
    <name><![CDATA[Passerelle sur le torrent de Rougnoux]]></name>
  </wpt>
  <wpt lat="44.7672" lon="6.32888">
    <ele>1831.2</ele>
    <name><![CDATA[Bivouac du refuge du Pré de la Chaumette]]></name>
  </wpt>
  <wpt lat="44.7729" lon="6.31142">
    <ele>2512.9</ele>
    <name><![CDATA[Sous le Puy de la Chaumette]]></name>
  </wpt>
  <wpt lat="44.81151" lon="6.29603">
    <ele>1704.7</ele>
    <name><![CDATA[Passerelle sur le torrent de Vallonpierre]]></name>
  </wpt>
  <wpt lat="44.81485" lon="6.29576">
    <ele>1660.5</ele>
    <name><![CDATA[Torrent de Vallonpierre]]></name>
  </wpt>
  <wpt lat="44.82482" lon="6.29325">
    <ele>1569.6</ele>
    <name><![CDATA[Passerelle sur la Séveraisse]]></name>
  </wpt>
  <wpt lat="44.82779" lon="6.29194">
    <ele>1545.2</ele>
    <name><![CDATA[Passerelle sur le Torrent de Pis Baumette]]></name>
  </wpt>
  <wpt lat="44.83173" lon="6.28114">
    <ele>1439</ele>
    <name><![CDATA[Passerelle sur le Torrent du Gioberney]]></name>
  </wpt>
  <wpt lat="44.8266" lon="6.26079">
    <ele>1402.8</ele>
    <name><![CDATA[Rif du Sap]]></name>
  </wpt>
  <wpt lat="44.82438" lon="6.23313">
    <ele>1174.1</ele>
    <name><![CDATA[Pont du Hameau du Bourg]]></name>
  </wpt>
  <wpt lat="44.81982" lon="6.21913">
    <ele>1151.2</ele>
    <name><![CDATA[Passerelle du Casset]]></name>
  </wpt>
  <trk>
    <name><![CDATA[E8 Refuge des Souffles - Le Désert en Valjouffrey]]></name>
    <trkseg>
      <trkpt lat="44.84475" lon="6.14621">
        <ele>1956</ele>
        <time>2020-10-27T09:18:03+01:00</time>
      </trkpt>
      <trkpt lat="44.8451" lon="6.14597">
        <ele>1950</ele>
        <time>2020-10-27T09:18:08+01:00</time>
      </trkpt>
      <trkpt lat="44.84559" lon="6.14578">
        <ele>1944</ele>
        <time>2020-10-27T09:18:13+01:00</time>
      </trkpt>
      <trkpt lat="44.84612" lon="6.14533">
        <ele>1943</ele>
        <time>2020-10-27T09:18:18+01:00</time>
      </trkpt>
      <trkpt lat="44.84615" lon="6.14464">
        <ele>1936</ele>
        <time>2020-10-27T09:18:23+01:00</time>
      </trkpt>
      <trkpt lat="44.84655" lon="6.14428">
        <ele>1943</ele>
        <time>2020-10-27T09:18:28+01:00</time>
      </trkpt>
      <trkpt lat="44.84719" lon="6.14421">
        <ele>1956</ele>
        <time>2020-10-27T09:18:33+01:00</time>
      </trkpt>
      <trkpt lat="44.84778" lon="6.14267">
        <ele>1963</ele>
        <time>2020-10-27T09:18:38+01:00</time>
      </trkpt>
      <trkpt lat="44.84837" lon="6.1416">
        <ele>1968</ele>
        <time>2020-10-27T09:18:43+01:00</time>
      </trkpt>
      <trkpt lat="44.84855" lon="6.14063">
        <ele>1972</ele>
        <time>2020-10-27T09:18:48+01:00</time>
      </trkpt>
      <trkpt lat="44.84965" lon="6.13924">
        <ele>2006</ele>
        <time>2020-10-27T09:18:53+01:00</time>
      </trkpt>
      <trkpt lat="44.84953" lon="6.14046">
        <ele>2039</ele>
        <time>2020-10-27T09:18:58+01:00</time>
      </trkpt>
      <trkpt lat="44.85027" lon="6.13962">
        <ele>2056</ele>
        <time>2020-10-27T09:19:03+01:00</time>
      </trkpt>
      <trkpt lat="44.85093" lon="6.13829">
        <ele>2082</ele>
        <time>2020-10-27T09:19:08+01:00</time>
      </trkpt>
      <trkpt lat="44.8507" lon="6.13806">
        <ele>2073</ele>
        <time>2020-10-27T09:19:13+01:00</time>
      </trkpt>
      <trkpt lat="44.85067" lon="6.1373">
        <ele>2065</ele>
        <time>2020-10-27T09:19:18+01:00</time>
      </trkpt>
      <trkpt lat="44.85041" lon="6.13733">
        <ele>2049</ele>
        <time>2020-10-27T09:19:23+01:00</time>
      </trkpt>
      <trkpt lat="44.85073" lon="6.13683">
        <ele>2054</ele>
        <time>2020-10-27T09:19:28+01:00</time>
      </trkpt>
      <trkpt lat="44.85094" lon="6.13604">
        <ele>2047</ele>
        <time>2020-10-27T09:19:33+01:00</time>
      </trkpt>
      <trkpt lat="44.85041" lon="6.13576">
        <ele>2028</ele>
        <time>2020-10-27T09:19:38+01:00</time>
      </trkpt>
      <trkpt lat="44.85038" lon="6.13509">
        <ele>2052</ele>
        <time>2020-10-27T09:19:43+01:00</time>
      </trkpt>
      <trkpt lat="44.8496" lon="6.13473">
        <ele>2042</ele>
        <time>2020-10-27T09:19:48+01:00</time>
      </trkpt>
      <trkpt lat="44.84966" lon="6.13436">
        <ele>2048</ele>
        <time>2020-10-27T09:19:53+01:00</time>
      </trkpt>
      <trkpt lat="44.84939" lon="6.13419">
        <ele>2041</ele>
        <time>2020-10-27T09:19:58+01:00</time>
      </trkpt>
      <trkpt lat="44.84904" lon="6.13346">
        <ele>2042</ele>
        <time>2020-10-27T09:20:03+01:00</time>
      </trkpt>
      <trkpt lat="44.84903" lon="6.13303">
        <ele>2046</ele>
        <time>2020-10-27T09:20:08+01:00</time>
      </trkpt>
      <trkpt lat="44.84868" lon="6.13258">
        <ele>2039</ele>
        <time>2020-10-27T09:20:13+01:00</time>
      </trkpt>
      <trkpt lat="44.84819" lon="6.13211">
        <ele>2022</ele>
        <time>2020-10-27T09:20:18+01:00</time>
      </trkpt>
      <trkpt lat="44.84805" lon="6.13121">
        <ele>2022</ele>
        <time>2020-10-27T09:20:23+01:00</time>
      </trkpt>
      <trkpt lat="44.84784" lon="6.13022">
        <ele>2024</ele>
        <time>2020-10-27T09:20:28+01:00</time>
      </trkpt>
      <trkpt lat="44.84757" lon="6.12909">
        <ele>2033</ele>
        <time>2020-10-27T09:20:33+01:00</time>
      </trkpt>
      <trkpt lat="44.84761" lon="6.12853">
        <ele>2042</ele>
        <time>2020-10-27T09:20:38+01:00</time>
      </trkpt>
      <trkpt lat="44.84714" lon="6.12709">
        <ele>2048</ele>
        <time>2020-10-27T09:20:43+01:00</time>
      </trkpt>
      <trkpt lat="44.84712" lon="6.12606">
        <ele>2059</ele>
        <time>2020-10-27T09:20:48+01:00</time>
      </trkpt>
      <trkpt lat="44.84696" lon="6.12527">
        <ele>2067</ele>
        <time>2020-10-27T09:20:53+01:00</time>
      </trkpt>
      <trkpt lat="44.84644" lon="6.12484">
        <ele>2068</ele>
        <time>2020-10-27T09:20:58+01:00</time>
      </trkpt>
      <trkpt lat="44.84603" lon="6.12391">
        <ele>2075</ele>
        <time>2020-10-27T09:21:03+01:00</time>
      </trkpt>
      <trkpt lat="44.846" lon="6.12331">
        <ele>2081</ele>
        <time>2020-10-27T09:21:08+01:00</time>
      </trkpt>
      <trkpt lat="44.84572" lon="6.12308">
        <ele>2081</ele>
        <time>2020-10-27T09:21:13+01:00</time>
      </trkpt>
      <trkpt lat="44.84534" lon="6.12327">
        <ele>2085</ele>
        <time>2020-10-27T09:21:18+01:00</time>
      </trkpt>
      <trkpt lat="44.84452" lon="6.12396">
        <ele>2096</ele>
        <time>2020-10-27T09:21:23+01:00</time>
      </trkpt>
      <trkpt lat="44.84416" lon="6.12441">
        <ele>2100</ele>
        <time>2020-10-27T09:21:28+01:00</time>
      </trkpt>
      <trkpt lat="44.84346" lon="6.12323">
        <ele>2201</ele>
        <time>2020-10-27T09:21:33+01:00</time>
      </trkpt>
      <trkpt lat="44.84346" lon="6.12263">
        <ele>2212</ele>
        <time>2020-10-27T09:21:38+01:00</time>
      </trkpt>
      <trkpt lat="44.84372" lon="6.12192">
        <ele>2216</ele>
        <time>2020-10-27T09:21:43+01:00</time>
      </trkpt>
      <trkpt lat="44.84393" lon="6.12166">
        <ele>2219</ele>
        <time>2020-10-27T09:21:48+01:00</time>
      </trkpt>
      <trkpt lat="44.84423" lon="6.12173">
        <ele>2228</ele>
        <time>2020-10-27T09:21:53+01:00</time>
      </trkpt>
      <trkpt lat="44.84402" lon="6.12121">
        <ele>2237</ele>
        <time>2020-10-27T09:21:58+01:00</time>
      </trkpt>
      <trkpt lat="44.84347" lon="6.12158">
        <ele>2239</ele>
        <time>2020-10-27T09:22:03+01:00</time>
      </trkpt>
      <trkpt lat="44.84366" lon="6.12104">
        <ele>2248</ele>
        <time>2020-10-27T09:22:08+01:00</time>
      </trkpt>
      <trkpt lat="44.84407" lon="6.12048">
        <ele>2259</ele>
        <time>2020-10-27T09:22:13+01:00</time>
      </trkpt>
      <trkpt lat="44.84452" lon="6.12033">
        <ele>2264</ele>
        <time>2020-10-27T09:22:18+01:00</time>
      </trkpt>
      <trkpt lat="44.84544" lon="6.11969">
        <ele>2274</ele>
        <time>2020-10-27T09:22:23+01:00</time>
      </trkpt>
      <trkpt lat="44.84586" lon="6.11999">
        <ele>2275</ele>
        <time>2020-10-27T09:22:28+01:00</time>
      </trkpt>
      <trkpt lat="44.84592" lon="6.11956">
        <ele>2297</ele>
        <time>2020-10-27T09:22:33+01:00</time>
      </trkpt>
      <trkpt lat="44.84624" lon="6.11964">
        <ele>2290</ele>
        <time>2020-10-27T09:22:38+01:00</time>
      </trkpt>
      <trkpt lat="44.84703" lon="6.1193">
        <ele>2304</ele>
        <time>2020-10-27T09:22:43+01:00</time>
      </trkpt>
      <trkpt lat="44.84655" lon="6.11896">
        <ele>2320</ele>
        <time>2020-10-27T09:22:48+01:00</time>
      </trkpt>
      <trkpt lat="44.84614" lon="6.11904">
        <ele>2322</ele>
        <time>2020-10-27T09:22:53+01:00</time>
      </trkpt>
      <trkpt lat="44.84545" lon="6.1184">
        <ele>2335</ele>
        <time>2020-10-27T09:22:58+01:00</time>
      </trkpt>
      <trkpt lat="44.84464" lon="6.11825">
        <ele>2350</ele>
        <time>2020-10-27T09:23:03+01:00</time>
      </trkpt>
      <trkpt lat="44.84501" lon="6.1178">
        <ele>2361</ele>
        <time>2020-10-27T09:23:08+01:00</time>
      </trkpt>
      <trkpt lat="44.84569" lon="6.11767">
        <ele>2374</ele>
        <time>2020-10-27T09:23:13+01:00</time>
      </trkpt>
      <trkpt lat="44.84615" lon="6.11773">
        <ele>2377</ele>
        <time>2020-10-27T09:23:18+01:00</time>
      </trkpt>
      <trkpt lat="44.84565" lon="6.1172">
        <ele>2395</ele>
        <time>2020-10-27T09:23:23+01:00</time>
      </trkpt>
      <trkpt lat="44.84518" lon="6.11705">
        <ele>2402</ele>
        <time>2020-10-27T09:23:28+01:00</time>
      </trkpt>
      <trkpt lat="44.84545" lon="6.11683">
        <ele>2411</ele>
        <time>2020-10-27T09:23:33+01:00</time>
      </trkpt>
      <trkpt lat="44.84553" lon="6.11636">
        <ele>2423</ele>
        <time>2020-10-27T09:23:38+01:00</time>
      </trkpt>
      <trkpt lat="44.84614" lon="6.11585">
        <ele>2431</ele>
        <time>2020-10-27T09:23:43+01:00</time>
      </trkpt>
      <trkpt lat="44.84645" lon="6.11587">
        <ele>2435</ele>
        <time>2020-10-27T09:23:48+01:00</time>
      </trkpt>
      <trkpt lat="44.84719" lon="6.11643">
        <ele>2445</ele>
        <time>2020-10-27T09:23:53+01:00</time>
      </trkpt>
      <trkpt lat="44.84747" lon="6.1164">
        <ele>2458</ele>
        <time>2020-10-27T09:23:58+01:00</time>
      </trkpt>
      <trkpt lat="44.84714" lon="6.11574">
        <ele>2472</ele>
        <time>2020-10-27T09:24:03+01:00</time>
      </trkpt>
      <trkpt lat="44.84658" lon="6.1149">
        <ele>2493</ele>
        <time>2020-10-27T09:24:08+01:00</time>
      </trkpt>
      <trkpt lat="44.84693" lon="6.11475">
        <ele>2493</ele>
        <time>2020-10-27T09:24:13+01:00</time>
      </trkpt>
      <trkpt lat="44.8469" lon="6.11404">
        <ele>2471</ele>
        <time>2020-10-27T09:24:18+01:00</time>
      </trkpt>
      <trkpt lat="44.84706" lon="6.11342">
        <ele>2448</ele>
        <time>2020-10-27T09:24:23+01:00</time>
      </trkpt>
      <trkpt lat="44.84766" lon="6.11364">
        <ele>2412</ele>
        <time>2020-10-27T09:24:28+01:00</time>
      </trkpt>
      <trkpt lat="44.84787" lon="6.1131">
        <ele>2392</ele>
        <time>2020-10-27T09:24:33+01:00</time>
      </trkpt>
      <trkpt lat="44.84897" lon="6.11274">
        <ele>2326</ele>
        <time>2020-10-27T09:24:38+01:00</time>
      </trkpt>
      <trkpt lat="44.84956" lon="6.11218">
        <ele>2288</ele>
        <time>2020-10-27T09:24:43+01:00</time>
      </trkpt>
      <trkpt lat="44.85053" lon="6.11136">
        <ele>2234</ele>
        <time>2020-10-27T09:24:48+01:00</time>
      </trkpt>
      <trkpt lat="44.85055" lon="6.11095">
        <ele>2218</ele>
        <time>2020-10-27T09:24:53+01:00</time>
      </trkpt>
      <trkpt lat="44.85131" lon="6.11063">
        <ele>2190</ele>
        <time>2020-10-27T09:24:58+01:00</time>
      </trkpt>
      <trkpt lat="44.85189" lon="6.10939">
        <ele>2150</ele>
        <time>2020-10-27T09:25:03+01:00</time>
      </trkpt>
      <trkpt lat="44.85256" lon="6.10934">
        <ele>2142</ele>
        <time>2020-10-27T09:25:08+01:00</time>
      </trkpt>
      <trkpt lat="44.85319" lon="6.109">
        <ele>2125</ele>
        <time>2020-10-27T09:25:13+01:00</time>
      </trkpt>
      <trkpt lat="44.85354" lon="6.10913">
        <ele>2122</ele>
        <time>2020-10-27T09:25:18+01:00</time>
      </trkpt>
      <trkpt lat="44.85423" lon="6.10864">
        <ele>2091</ele>
        <time>2020-10-27T09:25:23+01:00</time>
      </trkpt>
      <trkpt lat="44.85505" lon="6.1081">
        <ele>2058</ele>
        <time>2020-10-27T09:25:28+01:00</time>
      </trkpt>
      <trkpt lat="44.85564" lon="6.10778">
        <ele>2044</ele>
        <time>2020-10-27T09:25:33+01:00</time>
      </trkpt>
      <trkpt lat="44.85686" lon="6.10746">
        <ele>2002</ele>
        <time>2020-10-27T09:25:38+01:00</time>
      </trkpt>
      <trkpt lat="44.85783" lon="6.10756">
        <ele>1975</ele>
        <time>2020-10-27T09:25:43+01:00</time>
      </trkpt>
      <trkpt lat="44.85867" lon="6.10746">
        <ele>1968</ele>
        <time>2020-10-27T09:25:48+01:00</time>
      </trkpt>
      <trkpt lat="44.85929" lon="6.10696">
        <ele>1964</ele>
        <time>2020-10-27T09:25:53+01:00</time>
      </trkpt>
      <trkpt lat="44.86034" lon="6.10741">
        <ele>1937</ele>
        <time>2020-10-27T09:25:58+01:00</time>
      </trkpt>
      <trkpt lat="44.86038" lon="6.10726">
        <ele>1929</ele>
        <time>2020-10-27T09:26:03+01:00</time>
      </trkpt>
      <trkpt lat="44.86054" lon="6.10723">
        <ele>1924</ele>
        <time>2020-10-27T09:26:08+01:00</time>
      </trkpt>
      <trkpt lat="44.86103" lon="6.10671">
        <ele>1909</ele>
        <time>2020-10-27T09:26:13+01:00</time>
      </trkpt>
      <trkpt lat="44.86151" lon="6.10698">
        <ele>1899</ele>
        <time>2020-10-27T09:26:18+01:00</time>
      </trkpt>
      <trkpt lat="44.86201" lon="6.10747">
        <ele>1901</ele>
        <time>2020-10-27T09:26:23+01:00</time>
      </trkpt>
      <trkpt lat="44.86274" lon="6.107">
        <ele>1883</ele>
        <time>2020-10-27T09:26:28+01:00</time>
      </trkpt>
      <trkpt lat="44.86366" lon="6.10704">
        <ele>1894</ele>
        <time>2020-10-27T09:26:33+01:00</time>
      </trkpt>
      <trkpt lat="44.86423" lon="6.10619">
        <ele>1887</ele>
        <time>2020-10-27T09:26:38+01:00</time>
      </trkpt>
      <trkpt lat="44.86451" lon="6.10584">
        <ele>1881</ele>
        <time>2020-10-27T09:26:43+01:00</time>
      </trkpt>
      <trkpt lat="44.86495" lon="6.10522">
        <ele>1871</ele>
        <time>2020-10-27T09:26:48+01:00</time>
      </trkpt>
      <trkpt lat="44.8646" lon="6.1035">
        <ele>1829</ele>
        <time>2020-10-27T09:26:53+01:00</time>
      </trkpt>
      <trkpt lat="44.86414" lon="6.10348">
        <ele>1814</ele>
        <time>2020-10-27T09:26:58+01:00</time>
      </trkpt>
      <trkpt lat="44.86426" lon="6.10307">
        <ele>1794</ele>
        <time>2020-10-27T09:27:03+01:00</time>
      </trkpt>
      <trkpt lat="44.86397" lon="6.10292">
        <ele>1772</ele>
        <time>2020-10-27T09:27:08+01:00</time>
      </trkpt>
      <trkpt lat="44.86341" lon="6.10303">
        <ele>1739</ele>
        <time>2020-10-27T09:27:13+01:00</time>
      </trkpt>
      <trkpt lat="44.86352" lon="6.10273">
        <ele>1730</ele>
        <time>2020-10-27T09:27:18+01:00</time>
      </trkpt>
      <trkpt lat="44.86318" lon="6.10271">
        <ele>1712</ele>
        <time>2020-10-27T09:27:23+01:00</time>
      </trkpt>
      <trkpt lat="44.86262" lon="6.10292">
        <ele>1694</ele>
        <time>2020-10-27T09:27:28+01:00</time>
      </trkpt>
      <trkpt lat="44.86273" lon="6.10237">
        <ele>1682</ele>
        <time>2020-10-27T09:27:33+01:00</time>
      </trkpt>
      <trkpt lat="44.86258" lon="6.102">
        <ele>1661</ele>
        <time>2020-10-27T09:27:38+01:00</time>
      </trkpt>
      <trkpt lat="44.8623" lon="6.10198">
        <ele>1649</ele>
        <time>2020-10-27T09:27:43+01:00</time>
      </trkpt>
      <trkpt lat="44.86277" lon="6.10082">
        <ele>1610</ele>
        <time>2020-10-27T09:27:48+01:00</time>
      </trkpt>
      <trkpt lat="44.86311" lon="6.09958">
        <ele>1555</ele>
        <time>2020-10-27T09:27:53+01:00</time>
      </trkpt>
      <trkpt lat="44.863" lon="6.09938">
        <ele>1540</ele>
        <time>2020-10-27T09:27:58+01:00</time>
      </trkpt>
      <trkpt lat="44.86358" lon="6.09859">
        <ele>1514</ele>
        <time>2020-10-27T09:28:03+01:00</time>
      </trkpt>
      <trkpt lat="44.86435" lon="6.09724">
        <ele>1463</ele>
        <time>2020-10-27T09:28:08+01:00</time>
      </trkpt>
      <trkpt lat="44.86533" lon="6.09728">
        <ele>1420</ele>
        <time>2020-10-27T09:28:13+01:00</time>
      </trkpt>
      <trkpt lat="44.86539" lon="6.09687">
        <ele>1398</ele>
        <time>2020-10-27T09:28:18+01:00</time>
      </trkpt>
      <trkpt lat="44.86577" lon="6.09685">
        <ele>1375</ele>
        <time>2020-10-27T09:28:23+01:00</time>
      </trkpt>
      <trkpt lat="44.86629" lon="6.09754">
        <ele>1361</ele>
        <time>2020-10-27T09:28:28+01:00</time>
      </trkpt>
      <trkpt lat="44.86703" lon="6.09767">
        <ele>1343</ele>
        <time>2020-10-27T09:28:33+01:00</time>
      </trkpt>
      <trkpt lat="44.86668" lon="6.09704">
        <ele>1327</ele>
        <time>2020-10-27T09:28:38+01:00</time>
      </trkpt>
      <trkpt lat="44.86627" lon="6.09651">
        <ele>1321</ele>
        <time>2020-10-27T09:28:43+01:00</time>
      </trkpt>
      <trkpt lat="44.86647" lon="6.09578">
        <ele>1311</ele>
        <time>2020-10-27T09:28:48+01:00</time>
      </trkpt>
      <trkpt lat="44.86723" lon="6.09471">
        <ele>1286</ele>
        <time>2020-10-27T09:28:53+01:00</time>
      </trkpt>
      <trkpt lat="44.86759" lon="6.09449">
        <ele>1277</ele>
        <time>2020-10-27T09:28:58+01:00</time>
      </trkpt>
      <trkpt lat="44.86816" lon="6.09383">
        <ele>1261</ele>
        <time>2020-10-27T09:29:03+01:00</time>
      </trkpt>
      <trkpt lat="44.86835" lon="6.09301">
        <ele>1255</ele>
        <time>2020-10-27T09:29:08+01:00</time>
      </trkpt>
      <trkpt lat="44.8687" lon="6.09215">
        <ele>1264</ele>
        <time>2020-10-27T09:29:13+01:00</time>
      </trkpt>
    </trkseg>
  </trk>
</gpx>